User: anonymous   Login
Location: Unspecified
(0.0000°N, 0.0000°E)
Time: 03:00:56
(UTC+00:00)
Language:

USA 67 - Orbit

View from above orbital plane
View from above orbital plane
View from above satellite
View from above satellite

Ground track
Ground track

The orbit data is extracted from the following two-line orbital elements,

1 20963U 90097B   18039.75102468 0.00000000  00000-0  00000-0 0    02
2 20963  16.6012   1.6230 0016508 216.1041 143.7964  0.98582646    07
Epoch (UTC): 08 February 2018 18:01:28
Eccentricity: 0.0016508
inclination: 16.6012°
perigee height: 36196 km
apogee height: 36337 km
right ascension of ascending node: 1.6230°
argument of perigee: 216.1041°
revolutions per day: 0.98582646
mean anomaly at epoch: 143.7964°
orbit number at epoch: 0

The dashed part of the orbit path shows where the satellite is in the earth's shadow,  

DLR